Printer-friendly version

IAU Minor Planet Center

Minor Planet Center

MPEC 2007-V79 : 2007 VX137

The following Minor Planet Electronic Circular may be linked-to from your own Web pages, but must not otherwise be redistributed electronically.


Read MPEC 2007-V78 Read MPEC 2007-V80


M.P.E.C. 2007-V79                                Issued 2007 Nov. 13, 00:10 UT

     The Minor Planet Electronic Circulars contain information on unusual
         minor planets and routine data on comets.  They are published
   on behalf of Commission 20 of the International Astronomical Union by the
          Minor Planet Center, Smithsonian Astrophysical Observatory,
                          Cambridge, MA 02138, U.S.A.

             Prepared using the Tamkin Foundation Computer Network

                              MPC@CFA.HARVARD.EDU
          URL http://www.cfa.harvard.edu/iau/mpc.html  ISSN 1523-6714

                                  2007 VX137

Observations:
     K07VD7X* C2007 11 08.33054 04 46 58.00 +32 49 48.5          20.3   EV079704
     K07VD7X  C2007 11 08.34280 04 46 56.85 +32 49 50.4          19.8   EV079704
     K07VD7X  C2007 11 08.35506 04 46 55.79 +32 49 52.8          20.1   EV079704
     K07VD7X  C2007 11 08.36730 04 46 54.64 +32 49 54.8          20.2   EV079704
     K07VD7X  C2007 11 09.30973 04 45 34.82 +32 52 39.8          19.8   EV079704
     K07VD7X  C2007 11 09.30993 04 45 34.85 +32 52 40.1          19.7   EV079704
     K07VD7X  C2007 11 09.32205 04 45 33.57 +32 52 42.3          20.3   EV079704
     K07VD7X  C2007 11 09.32225 04 45 33.68 +32 52 42.6          20.0   EV079704
     K07VD7X  C2007 11 09.32429 04 45 33.54 +32 52 43.2                 EV079701
     K07VD7X  C2007 11 09.33439 04 45 32.54 +32 52 45.3          20.2   EV079704
     K07VD7X  C2007 11 09.33459 04 45 32.57 +32 52 44.5          20.1   EV079704
     K07VD7X  C2007 11 09.34505 04 45 31.60 +32 52 47.4          20.0 R EV079711
     K07VD7X  C2007 11 09.34652 04 45 31.59 +32 52 46.9                 EV079701
     K07VD7X  C2007 11 09.34689 04 45 31.54 +32 52 46.1          20.3   EV079704
     K07VD7X  C2007 11 09.34709 04 45 31.43 +32 52 47.5          19.9   EV079704
     K07VD7X  C2007 11 09.35583 04 45 30.60 +32 52 48.4          20.1 R EV079711
     K07VD7X  C2007 11 09.35945 04 45 30.35 +32 52 48.4          20.4   EV079704
     K07VD7X  C2007 11 09.35966 04 45 30.25 +32 52 48.3          20.1   EV079704
     K07VD7X  C2007 11 09.36662 04 45 29.59 +32 52 51.0          20.1 R EV079711
     K07VD7X  C2007 11 09.36874 04 45 29.40 +32 52 50.5                 EV079701
     K07VD7X  C2007 11 09.42481 04 45 24.27 +32 52 58.4          20.9 R EV079734
     K07VD7X  C2007 11 09.42841 04 45 23.94 +32 52 58.6          20.2 R EV079734
     K07VD7X  C2007 11 09.43201 04 45 23.66 +32 52 58.9          19.8 R EV079734
     K07VD7X  C2007 11 09.43561 04 45 23.31 +32 52 59.5          20.2 R EV079734
     K07VD7X  C2007 11 10.23801304 44 14.17 +32 55 07.3          20.5 V EV079H55
     K07VD7X  C2007 11 10.24646604 44 13.40 +32 55 08.6          20.4 V EV079H55
     K07VD7X  C2007 11 10.25426404 44 12.69 +32 55 09.9          20.4 V EV079H55
     K07VD7X IC2007 11 10.41222 04 43 58.25 +32 55 34.7                 EV079711
     K07VD7X IC2007 11 10.43333 04 43 56.36 +32 55 37.5                 EV079711
     K07VD7X  C2007 11 10.44404 04 43 55.37 +32 55 38.5          19.9 R EV079711
     K07VD7X  C2007 11 11.31242 04 42 38.69 +32 57 40.9          20.0   EV079704
     K07VD7X  C2007 11 11.32501 04 42 37.48 +32 57 41.8          20.1   EV079704
     K07VD7X  C2007 11 11.33744 04 42 36.26 +32 57 42.8          20.3   EV079704
     K07VD7X  C2007 11 11.34994 04 42 35.14 +32 57 45.0          19.9   EV079704
     K07VD7X  C2007 11 11.35207 04 42 34.90 +32 57 45.0                 EV079701
     K07VD7X  C2007 11 11.36240 04 42 33.89 +32 57 46.4          20.1   EV079704
     K07VD7X  C2007 11 11.37429 04 42 32.75 +32 57 47.6                 EV079701
     K07VD7X 5C2007 11 11.38866 04 42 31.58 +32 57 49.8          19.8 R EV079673
     K07VD7X 5C2007 11 11.39352 04 42 31.12 +32 57 50.2                 EV079673
     K07VD7X 5C2007 11 11.39780 04 42 30.71 +32 57 50.8                 EV079673
     K07VD7X 5C2007 11 11.40208 04 42 30.30 +32 57 51.5                 EV079673
     K07VD7X  C2007 11 12.10831 04 41 26.23 +32 59 14.7                 EV079J95
     K07VD7X  C2007 11 12.11403 04 41 25.74 +32 59 15.8                 EV079J95
     K07VD7X  C2007 11 12.11975 04 41 25.16 +32 59 16.6          19.8 R EV079J95
     K07VD7X  C2007 11 12.36902 04 41 02.44 +32 59 48.1                 EV079711
     K07VD7X  C2007 11 12.37853 04 41 01.54 +32 59 49.3          19.7 R EV079711
     K07VD7X  C2007 11 12.38803 04 41 00.64 +32 59 50.9          20.1 R EV079711

Observer details:
673 Table Mountain Observatory, Wrightwood.  Observer J. Young.  0.61-m f/16
    Cassegrain + CCD.
701 Junk Bond Observatory, Sierra Vista.  Observer D. Healy.  0.81-m f/4.4
    Ritchey-Chretien + CCD.
704 Lincoln Laboratory ETS, New Mexico.  Observers M. Bezpalko, D. Torres,
    R. Kracke, G. Spitz, J. Kistler.  Measurers J. Stuart, S. Scruggs.  1.0-m
    f/2.15 reflector + CCD.
711 McDonald Observatory.  Observer J. G. Ries.  0.76-m reflector + CCD
    + prime-focus corrector.
734 Farpoint Observatory.  Observer G. Hug.  0.7-m reflector + CCD.
H55 Astronomical Research Observatory, Charleston.  Observer R. Holmes.
    0.61-m f/4.0 astrograph + CCD.
J95 Great Shefford.  Observer P. Birtwhistle.  0.40-m f/6.0 Schmidt-Cassegrain
    + CCD.

Orbital elements:
2007 VX137                                               Earth MOID = 0.2655 AU
Epoch 2007 Oct. 27.0 TT = JDT 2454400.5                 MPC
M  34.87728              (2000.0)            P               Q
n   0.29741480     Peri.  325.60625     +0.89681549     +0.44212962
a   2.2227690      Node     8.19901     -0.37733971     +0.78285224
e   0.4302967      Incl.    6.28027     -0.23094746     +0.43779420
P   3.31           H   18.5           G   0.15           U   8
Residuals in seconds of arc
071108 704  1.0+  0.5+    071109 704  0.5+  0.5-    071111 704  0.0   0.3-
071108 704  0.1+  0.1+    071109 704  0.6-  0.6-    071111 704  0.8+  0.2+
071108 704  0.4+  0.2+    071109 711  0.5-  0.3+    071111 701  0.3-  0.5-
071108 704  0.4-  0.1-    071109 701  1.5-  0.4-    071111 704  0.2-  0.0
071109 704  0.1+  0.5-    071109 734  0.4-  0.4+    071111 701  0.9-  0.8-
071109 704  0.7+  0.3-    071109 734  0.5-  0.0     071111 673  0.2+  0.1+
071109 704  1.6-  0.2-    071109 734  0.0   0.2-    071111 673  0.2+  0.1-
071109 704  0.0   0.1+    071109 734  0.3-  0.1-    071111 673  0.1+  0.1-
071109 701  0.0   0.1-    071110 H55  0.1+  0.4+    071111 673  0.1+  0.1+
071109 704  0.5-  0.7+    071110 H55  0.1+  0.3+    071112 J95  0.3-  0.3-
071109 704  0.1+  0.2-    071110 H55  0.2+  0.4+    071112 J95  0.4+  0.1+
071109 711  0.2+  0.3+    071110 711  0.3-  0.1+    071112 J95  0.1-  0.3+
071109 701  0.7+  0.2-    071110 711  0.4+  0.1+    071112 711  0.4-  0.6-
071109 704  1.1+  0.7-    071110 711  0.4+  0.3-    071112 711  0.3-  0.4-
071109 704  0.0   0.7+    071111 704  0.9+  1.2+    071112 711  0.1-  0.2+
071109 711  0.1-  0.5-    071111 704  0.6+  0.3+

Ephemeris:
2007 VX137               a,e,i = 2.22, 0.43, 6                   q = 1.2663
Date    TT    R. A. (2000) Decl.     Delta      r     Elong.  Phase     V
2007 11 06    04 50.12   +32 41.8    0.814    1.730   146.5    18.4    20.2
2007 11 16    04 35.36   +33 04.5    0.828    1.785   158.2    11.9    20.1
2007 11 26    04 19.10   +32 56.4    0.864    1.840   167.4     6.7    20.0
2007 12 06    04 04.20   +32 22.4    0.923    1.895   166.1     7.2    20.2
2007 12 16    03 52.81   +31 33.7    1.006    1.949   156.6    11.6    20.7
2007 12 26    03 45.99   +30 42.9    1.111    2.003   145.9    16.0    21.1
2008 01 05    03 43.73   +29 58.6    1.235    2.056   135.7    19.5    21.5
2008 01 15    03 45.56   +29 24.8    1.374    2.109   126.1    22.1    21.9

Gareth V. Williams           (C) Copyright 2007 MPC           M.P.E.C. 2007-V79

Read MPEC 2007-V78 Read MPEC 2007-V80


Our Web policy. Index to the CBAT/MPC/ICQ pages.


Valid HTML 4.01!